Regional Weather Roundup
Issued by NWS Portland, ME

Home | Current Version | Previous Version | Text Only | Print | Product List | Glossary On
Versions: 1 2 3 4 5 6 7 8 9 10 11 12 13 14 15 16 17 18 19 20 21 22 23 24 25 26 27 28 29 30 31 32 33 34 35 36 37 38 39 40 41 42 43 44 45 46 47 48 49 50
209
ASUS41 KGYX 182110
RWRGYX
WEATHER ROUNDUP FOR MAINE AND NEW HAMPSHIRE
NATIONAL WEATHER SERVICE GRAY ME
500 PM EDT WED OCT 18 2017

MEZ002-005-006-010-012-015-018-020-021-024-026-027-029-182200-
MAINE

CITY           SKY/WX    TMP DP  RH WIND       PRES   REMARKS
PORTLAND       PTCLDY    64  46  52 S6        30.19R
SANFORD        CLEAR     68  41  37 W6        30.20S
BAR HARBOR     CLEAR     65  34  31 NW5       30.16R
WISCASSET      CLEAR     69  39  33 VRB3      30.19R
ROCKLAND       CLEAR     66  40  38 W6        30.17R
FRYEBURG       CLEAR     68  41  37 CALM      30.19R
LEWISTONAUBURN CLEAR     68  41  37 W5        30.19R
AUGUSTA        CLEAR     67  33  28 W7        30.18R
WATERVILLE     CLEAR     66  35  31 CALM      30.14S
BANGOR         PTCLDY    66  31  27 NW6       30.16R
GREENVILLE       N/A     56  29  35 NW8G17    30.14S
MILLINOCKET    CLEAR     61  22  22 VRB5      30.15R
HOULTON        CLEAR     59  28  30 NW8       30.10R
PRESQUE ISLE   CLEAR     56  29  35 NW7       30.13R
FRENCHVILLE    CLEAR     50  26  39 W6        30.10R
CARIBOU        CLEAR     55  30  38 NW6       30.11R
$$

NHZ002-005-008-009-011-012-014-182200-
NEW HAMPSHIRE

CITY           SKY/WX    TMP DP  RH WIND       PRES   REMARKS
PORTSMOUTH     PTCLDY    69  42  38 W5        30.19S
ROCHESTER      CLEAR     68  39  34 VRB3      30.20R
NASHUA         CLEAR     67  44  43 CALM      30.21S
MANCHESTER     PTCLDY    71  38  29 S3        30.19S
CONCORD        CLEAR     71  40  32 CALM      30.20S
LACONIA        CLEAR     67  43  41 SW6       30.20S
PLYMOUTH       FAIR      67  41  38 CALM      30.19S
BERLIN         CLEAR     64  37  36 W6        30.19S
WHITEFIELD     CLEAR     64  40  41 SW3       30.20S
JAFFREY        CLEAR     67  42  40 VRB6      30.23S
KEENE          CLEAR     71  42  35 SW6       30.21S
LEBANON        CLEAR     70  42  36 S3        30.19R
MT WASHINGTON  PTCLDY    39  28  65 NW37        N/A
$$

VTZ005-007-008-182200-
VERMONT

CITY           SKY/WX    TMP DP  RH WIND       PRES   REMARKS
ST JOHNSBURY     N/A     65  38  36 MISG      30.18S
MONTPELIER     CLEAR     64  38  38 CALM      30.24S
BURLINGTON     PTCLDY    68  44  42 S9        30.17F
$$

MAZ007-012-024-CTZ003-RIZ002-NYZ038-NYZ072-182200-
SOUTHERN NEW ENGLAND AND NY

CITY           SKY/WX    TMP DP  RH WIND       PRES   REMARKS
BOSTON         PTCLDY    70  38  31 W6        30.22R
WORCESTER      CLEAR     66  40  38 SW8       30.24S
NANTUCKET      CLEAR     62  57  83 W10       30.25R
PROVIDENCE     CLEAR     73  42  32 W6        30.23S
HARTFORD       MOSUNNY   72  42  34 W6        30.23S
ALBANY         MOSUNNY   69  47  45 S5        30.22S
NEW YORK CITY  SUNNY     72  45  37 S9        30.24F
$$

ANZ081-ANZ082-ANZ150-NHZ014-MEZ023>029-182200-
COASTAL MARINE OBSERVATIONS

STATION/POSITION TIME  TEMP    WIND        PRES    WAVE
                       AIR SEA DIR/SP/G            HT/PER
                 (UTC) (F)     (DEG/KT/KT) (MB)    (FT/S)
MOUNT DESERT ROC 2100   57     220/ 15/ 16 1021.9R
MATINICUS ROCK   2000   57     250/ 15/ 16 1021.3R
ISLE OF SHOALS   2000   64     220/  3/  5 1022.5R
JEFFREYS LEDGE   2006      58                N/A     2/10
CASHES LEDGE BUO 2050   58 56              1023.0S   3/ 5
GEORGES BANK BUO 1950   60 59              1023.5    5/ 6
$$

.............KEY..............
   WCI - WIND CHILL
   TC  - TEMPERATURE IN CELSIUS
   VSB - VISIBILITY IN MILES
   HX  - HEAT INDEX
   FAIR- INDICATES FEW OR NO CLOUDS BELOW 12,000 FT, WITH NO
         SIGNIFICANT WEATHER AND/OR OBSTRUCTIONS TO VISIBILITY.






USA.gov is the U.S. government's official web portal to all federal, state and local government web resources and services.